| time (UTC) | temp F | wind direction | speed MPH | gust MPH | rain 1hr in | rain 24hr in | rain mn in | humidity % | barometer mb |
| 20260504214607 | 79 | 165 | 2.0 | 17.0 | 0.00 | 1.06 | 2.65 | 42 | 1008.3 |
| 20260504213109 | 79 | 146 | 3.0 | 13.0 | 0.00 | 1.06 | 2.65 | 40 | 1008.3 |
| 20260504211554 | 79 | 104 | 6.0 | 21.0 | 0.00 | 1.06 | 2.65 | 42 | 1008.2 |
| 20260504210050 | 80 | 155 | 2.0 | 11.0 | 0.00 | 1.06 | 2.65 | 43 | 1008.3 |
| 20260504204551 | 79 | 164 | 1.0 | 10.0 | 0.00 | 1.06 | 2.65 | 46 | 1008.4 |
| 20260504203047 | 80 | 190 | 3.0 | 11.0 | 0.00 | 1.06 | 2.65 | 44 | 1008.7 |
| 20260504201558 | 80 | 143 | 2.0 | 10.0 | 0.00 | 1.06 | 2.65 | 43 | 1008.8 |
| 20260504200044 | 79 | 149 | 2.0 | 17.0 | 0.00 | 1.06 | 2.65 | 42 | 1009.1 |
| 20260504194547 | 79 | 130 | 6.0 | 13.0 | 0.00 | 1.06 | 2.65 | 43 | 1009.3 |
| 20260504193037 | 79 | 165 | 2.0 | 13.0 | 0.00 | 1.06 | 2.65 | 45 | 1009.5 |
| 20260504191539 | 79 | 92 | 3.0 | 17.0 | 0.00 | 1.06 | 2.65 | 45 | 1009.8 |
| 20260504190033 | 79 | 126 | 4.0 | 11.0 | 0.00 | 1.06 | 2.65 | 47 | 1010.0 |
| 20260504184535 | 78 | 124 | 3.0 | 12.0 | 0.00 | 1.06 | 2.65 | 47 | 1010.1 |
| 20260504183030 | 78 | 237 | 3.0 | 12.0 | 0.00 | 1.06 | 2.65 | 47 | 1010.3 |
| 20260504181532 | 78 | 166 | 2.0 | 10.0 | 0.00 | 1.06 | 2.65 | 49 | 1010.4 |
| 20260504180025 | 78 | 282 | 2.0 | 9.0 | 0.00 | 1.06 | 2.65 | 47 | 1010.4 |
| 20260504174522 | 77 | 141 | 4.0 | 10.0 | 0.00 | 1.06 | 2.65 | 48 | 1010.6 |
| 20260504173019 | 77 | 138 | 2.0 | 10.0 | 0.00 | 1.06 | 2.65 | 49 | 1010.9 |
| 20260504171517 | 77 | 165 | 2.0 | 10.0 | 0.00 | 1.06 | 2.65 | 52 | 1011.0 |
| 20260504160105 | 73 | 223 | 1.0 | 7.0 | 0.00 | 1.12 | 2.65 | 57 | 1012.2 |
| 20260504110103 | 56 | 143 | 0.0 | 1.0 | 0.00 | 1.00 | 1.45 | 74 | 1012.2 |
| 20260504081543 | 57 | 162 | 0.0 | 5.0 | 0.00 | 1.00 | 1.45 | 68 | 1012.3 |
| 20260504050014 | 52 | 173 | 0.0 | 1.0 | 7.95 | 8.61 | 0.01 | 77 | 1013.9 |
| 20260504044512 | 52 | 173 | 0.0 | 0.0 | 6.69 | 7.29 | 7.29 | 80 | 1014.0 |
| 20260504043013 | 51 | 173 | 0.0 | 0.0 | 4.98 | 5.58 | 5.58 | 79 | 1014.2 |
| 20260504041512 | 52 | 173 | 0.0 | 0.0 | 2.02 | 2.63 | 2.63 | 78 | 1014.3 |
| 20260504040011 | 52 | 173 | 0.0 | 0.0 | 0.06 | 0.66 | 0.66 | 77 | 1014.4 |
| 20260504034519 | 53 | 173 | 0.0 | 0.0 | 0.00 | 0.60 | 0.60 | 74 | 1014.4 |
| 20260504033020 | 54 | 173 | 0.0 | 0.0 | 0.00 | 0.60 | 0.60 | 75 | 1014.4 |
| 20260504031510 | 54 | 173 | 0.0 | 0.0 | 0.00 | 0.60 | 0.60 | 69 | 1014.5 |
| 20260504030009 | 55 | 173 | 0.0 | 0.0 | 0.00 | 0.60 | 0.60 | 68 | 1014.4 |
| 20260504024528 | 55 | 173 | 0.0 | 0.0 | 0.01 | 0.60 | 0.60 | 69 | 1014.4 |
| 20260504023008 | 56 | 173 | 0.0 | 0.0 | 0.01 | 0.60 | 0.60 | 69 | 1014.3 |
| 20260504021508 | 55 | 173 | 0.0 | 0.0 | 0.01 | 0.60 | 0.60 | 70 | 1014.0 |
| 20260504020011 | 55 | 173 | 0.0 | 0.0 | 0.01 | 0.60 | 0.60 | 72 | 1014.0 |
| 20260504014506 | 56 | 173 | 0.0 | 0.0 | 0.00 | 0.59 | 0.59 | 72 | 1013.9 |
| 20260504013005 | 57 | 173 | 0.0 | 0.0 | 0.00 | 0.59 | 0.59 | 69 | 1014.1 |
| 20260504011504 | 58 | 173 | 0.0 | 0.0 | 0.00 | 0.59 | 0.59 | 64 | 1014.1 |
| 20260504010004 | 60 | 173 | 0.0 | 0.0 | 0.00 | 0.59 | 0.59 | 62 | 1014.0 |
| 20260504004508 | 62 | 173 | 0.0 | 0.0 | 0.00 | 0.59 | 0.59 | 56 | 1014.2 |
| 20260504003002 | 64 | 175 | 0.0 | 0.0 | 0.00 | 0.59 | 0.59 | 52 | 1014.2 |
| 20260504001502 | 65 | 175 | 0.0 | 0.0 | 0.00 | 0.59 | 0.59 | 47 | 1014.2 |
| 20260504000105 | 66 | 176 | 0.0 | 2.0 | 0.00 | 0.59 | 0.59 | 45 | 1014.4 |
| 20260503234600 | 67 | 280 | 0.0 | 4.0 | 0.00 | 0.59 | 0.59 | 43 | 1014.4 |
| 20260503233057 | 67 | 122 | 0.0 | 3.0 | 0.00 | 0.59 | 0.59 | 42 | 1014.6 |
| 20260503231558 | 68 | 211 | 0.0 | 4.0 | 0.00 | 0.59 | 0.59 | 43 | 1014.6 |
| 20260503230056 | 68 | 203 | 1.0 | 6.0 | 0.00 | 0.59 | 0.59 | 41 | 1014.8 |
| 20260503224554 | 69 | 167 | 1.0 | 6.0 | 0.00 | 0.59 | 0.59 | 41 | 1014.9 |
| 20260503223052 | 69 | 88 | 1.0 | 6.0 | 0.00 | 0.59 | 0.59 | 39 | 1015.0 |
| 20260503221554 | 69 | 326 | 2.0 | 8.0 | 0.00 | 0.59 | 0.59 | 39 | 1015.1 |
| 20260503220049 | 69 | 161 | 2.0 | 6.0 | 0.00 | 0.59 | 0.59 | 39 | 1015.3 |